Minot AFB, ND

11:28 AM CDT on October 23, 2019 (GMT -0500)
Minot Air Force Base

Weather History for KMIB - August, 2019

Change the Weather History Date:

Monday, August 5, 2019

  Actual Average Record
Temperature  
Mean Temperature 68 °F -  
Max Temperature 81 °F 79 °F 89 °F (2005)
Min Temperature 57 °F 54 °F 46 °F (2012)
Cooling Degree Days 4    
Growing Degree Days 18 (Base 50)    
Moisture  
Dew Point 59 °F    
Average Humidity 81    
Maximum Humidity 100    
Minimum Humidity 39    
Precipitation  
Precipitation 0.18 in - - ()
Sea Level Pressure  
Sea Level Pressure 29.94 in    
Wind  
Wind Speed 5 mph (West)    
Max Wind Speed 18 mph    
Max Gust Speed 23 mph    
Visibility 10 miles    
Events Rain , Thunderstorm    
Averages and records for this station are not official NWS values.
T = Trace of Precipitation, MM = Missing Value Source: NWS Daily Summary

Daily Weather History Graph

Daily Weather History Graph

Search for Another Location

Airport or City:

Astronomy

Aug. 05, 2019 Rise Set
Actual Time 6:25 AM CDT 9:16 PM CDT
Civil Twilight 5:49 AM CDT 9:52 PM CDT
Nautical Twilight 5:02 AM CDT 10:38 PM CDT
Astronomical Twilight 4:06 AM CDT 11:34 PM CDT
Moon 12:08 PM CDT (8/5) No Moon Set
Length of Visible Light 16h 03m
Length of Day
14h 51m
Waxing Crescent, 28% of the Moon is Illuminated
Aug 5
Waxing Crescent
Aug 7
First Quarter
Aug 15
Full
Aug 23
Last Quarter
Aug 30
New

Hourly Weather History & Observations

Time (CDT) Temp. Heat Index Dew Point Humidity Pressure Visibility Wind Dir Wind Speed Gust Speed Precip Events Conditions
12:01 AM 64.4 °F - 60.8 °F 88% 29.95 in 6.0 mi WSW 3.5 mph - N/A Rain , Thunderstorm Thunderstorms and Rain
12:16 AM 62.6 °F - 60.8 °F 94% 29.96 in 9.0 mi Calm Calm - N/A Rain , Thunderstorm Light Thunderstorms and Rain
12:26 AM 62.6 °F - 60.8 °F 94% 29.96 in 10.0 mi Calm Calm - N/A Rain , Thunderstorm Light Thunderstorms and Rain
12:31 AM 62.6 °F - 60.8 °F 94% 29.95 in 10.0 mi South 4.6 mph - N/A Rain , Thunderstorm Light Thunderstorms and Rain
12:32 AM 62.6 °F - 60.8 °F 94% 29.95 in 10.0 mi South 5.8 mph - N/A Rain , Thunderstorm Light Rain
12:37 AM 62.6 °F - 60.8 °F 94% 29.95 in 10.0 mi Calm Calm - N/A Rain , Thunderstorm Light Rain
12:48 AM 62.6 °F - 60.8 °F 94% 29.99 in 10.0 mi SSW 5.8 mph - N/A   Scattered Clouds
12:52 AM 62.6 °F - 60.8 °F 94% 29.96 in 10.0 mi SSW 6.9 mph - N/A Rain Light Rain
12:56 AM 62.1 °F - 60.8 °F 96% 29.96 in 10.0 mi Calm Calm - 0.08 in Rain Light Rain
1:27 AM 62.6 °F - 62.6 °F 100% 29.94 in 10.0 mi Calm Calm - N/A Rain , Thunderstorm Light Thunderstorms and Rain
1:56 AM 62.4 °F - 61.5 °F 97% 29.94 in 10.0 mi Calm Calm - 0.05 in Rain Light Rain
2:00 AM 62.6 °F - 62.6 °F 100% 29.95 in 10.0 mi SW 8.1 mph - N/A   Scattered Clouds
2:11 AM 62.6 °F - 60.8 °F 94% 29.96 in 10.0 mi WSW 5.8 mph - N/A Rain Light Rain
2:56 AM 63.0 °F - 62.1 °F 97% 30.00 in 10.0 mi WNW 6.9 mph - 0.02 in Rain Light Rain
3:21 AM 62.6 °F - 62.6 °F 100% 29.94 in 10.0 mi SSW 8.1 mph - N/A Rain Light Rain
3:26 AM 62.6 °F - 62.6 °F 100% 29.93 in 10.0 mi South 5.8 mph - N/A Rain Light Rain
3:41 AM 62.6 °F - 62.6 °F 100% 29.93 in 10.0 mi Calm Calm - N/A Rain Light Rain
3:50 AM 62.6 °F - 60.8 °F 94% 29.93 in 10.0 mi Calm Calm - N/A   Scattered Clouds
3:51 AM 62.6 °F - 60.8 °F 94% 29.93 in 10.0 mi Calm Calm - N/A   Scattered Clouds
3:56 AM 62.2 °F - 61.3 °F 97% 29.93 in 10.0 mi Calm Calm - 0.03 in   Partly Cloudy
4:56 AM 59.5 °F - 59.0 °F 98% 29.93 in 10.0 mi West 4.6 mph - N/A   Clear
5:46 AM 59.0 °F - 59.0 °F 100% 29.93 in 2.2 mi Calm Calm - N/A   Clear
5:56 AM 57.6 °F - 57.0 °F 98% 29.94 in 8.0 mi Calm Calm - N/A   Clear
6:56 AM 57.2 °F - 56.8 °F 99% 29.94 in 10.0 mi WNW 4.6 mph - N/A   Clear
7:56 AM 61.0 °F - 60.4 °F 98% 29.95 in 10.0 mi West 4.6 mph - N/A   Clear
8:56 AM 66.2 °F - 60.4 °F 82% 29.96 in 10.0 mi WNW 5.8 mph - N/A   Clear
9:56 AM 70.5 °F - 59.4 °F 68% 29.97 in 10.0 mi NW 11.5 mph - N/A   Clear
10:56 AM 73.2 °F - 57.9 °F 59% 29.99 in 10.0 mi NW 16.1 mph - N/A   Clear
11:56 AM 75.7 °F - 56.3 °F 51% 29.99 in 10.0 mi NW 16.1 mph - N/A   Clear
12:56 PM 77.5 °F - 54.0 °F 44% 29.97 in 10.0 mi WNW 17.3 mph 23.0 mph N/A   Clear
1:56 PM 79.0 °F - 54.5 °F 43% 29.96 in 10.0 mi NW 18.4 mph - N/A   Clear
2:56 PM 80.1 °F - 52.9 °F 39% 29.95 in 10.0 mi WNW 15.0 mph - N/A   Clear
3:56 PM 80.6 °F 80.4 °F 54.0 °F 40% 29.95 in 10.0 mi NNW 15.0 mph - N/A   Clear
4:56 PM 80.4 °F 80.1 °F 53.2 °F 39% 29.93 in 10.0 mi NW 11.5 mph 23.0 mph N/A   Partly Cloudy
5:56 PM 80.8 °F 80.5 °F 54.1 °F 40% 29.92 in 10.0 mi NW 15.0 mph - N/A   Clear
6:56 PM 80.1 °F 80.0 °F 53.6 °F 40% 29.91 in 10.0 mi NW 11.5 mph - N/A   Clear
7:56 PM 77.9 °F - 55.9 °F 47% 29.90 in 10.0 mi NW 6.9 mph - N/A   Clear
8:56 PM 72.0 °F - 58.6 °F 63% 29.90 in 10.0 mi WNW 5.8 mph - N/A   Clear
9:56 PM 64.0 °F - 59.7 °F 86% 29.91 in 10.0 mi West 4.6 mph - N/A   Clear
10:56 PM 61.5 °F - 58.5 °F 90% 29.92 in 10.0 mi West 3.5 mph - N/A   Clear
11:56 PM 60.8 °F - 57.9 °F 90% 29.91 in 10.0 mi Calm Calm - N/A   Clear